EUTELSAT KONNECT

Last updated on Sun Oct 06 2024 00:02:42 GMT+0000 (Coordinated Universal Time)

1 45027U 20005B 24278.68383209 .00000058 00000+0 00000+0 0 9998 2 45027 0.0631 88.9879 0000595 138.6060 39.6641 1.00269729 18107
UTC large
Height (km)
Speed (km/s)
/
Latitude / Longitude
Inclination (degrees)
Orbital Period (minutes)
Azimuth
Elevation
Range (km)
Doppler Factor

Next 0 passes for location: London (51.5072 / 0.1276)

Sorry there are no passes over London.